Location: Augustenthal
(51.7167°N, 10.2833°E)
Time: 09:10:07
(UTC+00:00)

Meteor 1-13 Rocket - Pass Details

Date: 18 May 2021
Orbit: 830 x 913 km, 81.3° (Epoch: 15 June)

Event Time Altitude Azimuth Distance (km) Brightness Sun altitude
Exits shadow 22:10:17 29° 162° (SSE) 1,495 4.9 -17.1°
Maximum altitude 22:12:59 57° 96° (E) 981 4.4 -17.2°
Drops below altitude 10° 22:18:23 10° 20° (NNE) 2,451 7.4 -17.4°
Sets 22:20:50 0° 16° (NNE) 3,393 8.4 -17.5°
